Simultaneous Nadir Overpasses (SNOs) Predictions

Prediction of SNOs between GOES-16 and NPP Satellite Orbit:

Table of predicted SNOs for the next 14.0 days since TLE Epoch: 10/5/2019
Index Date Time (GOES-16) GOES-16 Lat,Lon NPP Lat,Lon Distance(km) Time Diff (sec)
1 10/06/2019 06:32:43 0.00, -75.20 0.29, -76.46 143.54 80
2 10/07/2019 06:11:18 0.00, -75.21 -0.75, -71.94 373.27 80
3 10/08/2019 18:33:13 0.00, -75.22 -0.47, -77.24 230.48 80
4 10/09/2019 18:17:09 0.00, -75.23 0.57, -72.71 286.96 80
5 10/11/2019 06:38:56 -0.00, -75.25 0.63, -77.98 311.69 80
6 10/12/2019 06:17:32 -0.00, -75.26 -0.41, -73.46 206.13 80
7 10/13/2019 18:39:27 -0.00, -75.29 -0.81, -78.76 396.29 80
8 10/14/2019 18:23:23 -0.00, -75.30 0.23, -74.23 121.92 80
9 10/16/2019 06:45:10 0.01, -75.33 0.96, -79.50 475.62 80
10 10/17/2019 06:23:45 0.01, -75.35 -0.08, -74.98 42.71 80




NCC Satellite Simultaneous Nadir Overpasses (SNOs) Prediction Service
